SB KEPS @ AMSAT $ORB16091.N 2Line Orbital Elements 16091.AMSAT
HR AMSAT ORBITAL ELEMENTS FOR AMATEUR SATELLITES IN NASA FORMAT FROM WA5QGD FORT WORTH,TX March 31, 2016 BID: ORB16091.N
DECODE 2-LINE ELSETS WITH THE FOLLOWING KEY: 1 AAAAAU 00 0 0 BBBBB.BBBBBBBB .CCCCCCCC 00000-0 00000-0 0 DDDZ 2 AAAAA EEE.EEEE FFF.FFFF GGGGGGG HHH.HHHH III.IIII JJ.JJJJJJJJKKKKKZ KEY: A-CATALOGNUM B-EPOCHTIME C-DECAY D-ELSETNUM E-INCLINATION F-RAAN G-ECCENTRICITY H-ARGPERIGEE I-MNANOM J-MNMOTION K-ORBITNUM Z-CHECKSUM
TO ALL RADIO AMATEURS BT
AO-07 1 07530U 74089B 16091.17193442 -.00000025 00000-0 11982-3 0 9993 2 07530 101.5665 63.8546 0012393 101.8858 326.2331 12.53620429893343 FO-29 1 24278U 96046B 16091.82436457 -.00000033 00000-0 16462-5 0 9995 2 24278 98.5823 27.1648 0351187 43.0605 319.7449 13.53065972969058 RS-22 1 27939U 03042A 16091.88632029 .00000336 00000-0 69054-4 0 9994 2 27939 97.8765 246.5897 0012977 184.8305 175.2779 14.66363173668491 HO-68 1 36122U 09072B 16091.91282743 -.00000059 00000-0 -43517-4 0 9995 2 36122 100.1531 130.8703 0007925 169.2796 190.8490 13.16333357302441 AO-73 1 39444U 13066AE 16091.12591651 .00000596 00000-0 81719-4 0 9997 2 39444 97.6901 147.8202 0057504 276.0621 83.4041 14.80951476126023 EO-79 1 40025U 14033R 16091.72478856 .00000785 00000-0 91834-4 0 9995 2 40025 97.9340 357.1870 0011884 324.6139 35.4287 14.87902406 96685 XW-2A 1 40903U 15049E 16091.87002407 .00005032 00000-0 14638-3 0 9995 2 40903 97.4496 106.1030 0017795 57.0029 64.8324 15.35754276 29687 XW-2C 1 40906U 15049H 16091.83857846 .00002195 00000-0 12664-3 0 9993 2 40906 97.4548 100.5924 0014679 310.3945 173.0837 15.13317044 29303 LILACSAT-2 1 40908U 15049K 16091.85555025 .00000850 00000-0 52621-4 0 9995 2 40908 97.4612 100.5587 0015042 302.4818 130.7613 15.12372165 29292 XW-2E 1 40909U 15049L 16091.83696822 .00003253 00000-0 18173-3 0 9998 2 40909 97.4548 100.7451 0013699 313.6332 169.9663 15.14135713 29314 UO-11 1 14781U 84021B 16090.75196394 .00000203 00000-0 31544-4 0 9992 2 14781 97.7591 145.1173 0007972 202.0712 158.0160 14.82707026724632 LO-19 1 20442U 90005G 16091.83051207 .00000047 00000-0 33141-4 0 9996 2 20442 98.5387 27.8697 0012230 20.4264 339.7406 14.32807291368274 AO-27 1 22825U 93061C 16090.85617294 .00000047 00000-0 35618-4 0 9994 2 22825 98.7507 46.6564 0008283 179.3700 180.7494 14.29946916174046 IO-26 1 22826U 93061D 16091.82778048 .00000062 00000-0 41379-4 0 9996 2 22826 98.7452 47.7659 0009034 168.3796 191.7596 14.30270738174343 GO-32 1 25397U 98043D 16090.84351201 .00000023 00000-0 28812-4 0 9990 2 25397 98.5596 37.8506 0001165 152.8503 207.2737 14.23588723920716 NO-44 1 26931U 01043C 16090.81629735 .00000019 00000-0 39043-4 0 9999 2 26931 67.0510 155.0987 0007577 267.3649 92.6585 14.30396668756931 SO-50 1 27607U 02058C 16091.67694102 .00000370 00000-0 52117-4 0 9999 2 27607 64.5570 37.6564 0075164 233.0297 126.4406 14.75113127713838 CO-55 1 27844U 03031E 16091.48737147 .00000116 00000-0 72456-4 0 9996 2 27844 98.6948 100.8844 0009666 180.7730 179.3434 14.21931520661405 CO-57 1 27848U 03031J 16090.94701056 .00000089 00000-0 60372-4 0 9993 2 27848 098.7044 100.4054 0009393 190.5329 169.5653 14.21559992661195 CO-65 1 32785U 08021C 16091.20626436 .00000589 00000-0 70720-4 0 9994 2 32785 97.6119 128.6341 0013062 188.3865 171.7135 14.87474997429039 PRISM 1 33493U 09002B 16091.75776488 .00001806 00000-0 17177-3 0 9993 2 33493 98.2258 308.1709 0017012 100.6685 259.6456 14.94721409389663 TISAT-1 1 36799U 10035E 16091.81037389 .00001081 00000-0 11912-3 0 9996 2 36799 98.0227 200.9390 0012046 345.9473 14.1407 14.89646611309909 ALMASAT-1 1 38078U 12006B 16090.93742902 .00044781 38368-5 62066-3 0 9997 2 38078 069.4511 224.9917 0406293 214.0428 143.4052 14.97972674217840 DUCHIFAT-1 1 40021U 14033M 16091.67899086 .00001200 00000-0 13300-3 0 9991 2 40021 97.9366 358.0363 0012508 323.5972 36.4394 14.89143715 96720 NANOSATCBR1 1 40024U 14033Q 16091.69684760 .00001003 00000-0 11373-3 0 9996 2 40024 97.9343 357.5480 0011712 323.4784 36.5632 14.88574984 96707 DTUSAT-2 1 40030U 14033W 16091.68706851 .00000766 00000-0 90587-4 0 9998 2 40030 97.9319 356.6657 0011205 318.2563 41.7798 14.87534835 96652 ANTELSAT 1 40034U 14033AA 16091.80861411 .00000540 00000-0 89229-4 0 9991 2 40034 97.9134 342.0770 0058135 274.8390 84.6190 14.73304108 95782 MET-2/21 1 22782U 93055A 16091.24129301 .00000085 00000-0 63196-4 0 9994 2 22782 82.5528 15.0889 0021293 231.4691 292.6554 13.83788191140431 NOAA-15 1 25338U 98030A 16091.74456388 .00000069 00000-0 47893-4 0 9993 2 25338 98.7837 95.7386 0011543 54.8561 305.3698 14.25713739929956 NOAA-18 1 28654U 05018A 16091.76916777 .00000026 00000-0 39769-4 0 9992 2 28654 99.1985 96.6852 0013527 229.3747 130.6248 14.12276364559803 NOAA-19 1 33591U 09005A 16091.78235247 .00000123 00000-0 91985-4 0 9992 2 33591 99.0317 47.9567 0015059 77.7058 282.5798 14.12056769368216 HUBBLE 1 20580U 90037B 16091.31711807 .00001093 00000-0 57480-4 0 9990 2 20580 28.4703 52.9173 0003012 92.5187 133.6617 15.08271731223342 ISS 1 25544U 98067A 16091.67455632 .00010190 00000-0 15263-3 0 9996 2 25544 51.6405 84.6367 0002395 12.6770 347.4806 15.54306738992924 CO-58 1 28895U 05043F 16091.13637665 .00000358 00000-0 78077-4 0 9997 2 28895 97.8280 269.0196 0018323 104.9746 255.3487 14.63147078555694 CAPE1 1 31130U 07012P 16091.39633437 .00000344 00000-0 83738-4 0 9997 2 31130 98.0248 49.7726 0097554 137.5888 223.2903 14.55872650474814 AAUSAT2 1 32788U 08021F 16091.10403501 .00000969 00000-0 98372-4 0 9997 2 32788 97.6129 136.5246 0012736 164.1844 195.9776 14.93019097429549 DO-64 1 32789U 08021G 16091.17068526 .00003550 00000-0 26952-3 0 9992 2 32789 97.6157 151.7547 0014556 161.3169 198.8594 15.02748761430286 CO-66 1 32791U 08021J 16090.80311859 .00000835 00000-0 92846-4 0 9993 2 32791 097.6128 131.1438 0013728 179.9017 180.2206 14.89632724429047 RS-30 1 32953U 08025A 16091.69602299 .00000010 00000-0 -13620-7 0 9998 2 32953 82.5062 154.8440 0019398 167.6635 192.4928 12.43068190356459 JUGNU 1 37839U 11058B 16087.77810704 .00000341 00000-0 40028-4 0 9997 2 37839 19.9613 277.1535 0018973 302.8911 175.0044 14.12530838230509 SRMSAT 1 37841U 11058D 16090.96096221 .00000345 00000-0 44488-4 0 9993 2 37841 019.9723 290.4361 0011895 252.7632 260.5825 14.10532505230539 AO-71 1 37854U 11061E 16091.22807565 .00004286 00000-0 24543-3 0 9999 2 37854 101.7087 94.4889 0174815 303.7987 54.6681 15.01701957240392 HRBE 1 37855U 11061F 16090.92437065 .00004434 00000-0 24933-3 0 9998 2 37855 101.7235 092.1618 0187557 308.5507 049.9021 15.00618043239789 HORYU-2 1 38340U 12025D 16090.95509867 .00000622 00000-0 10064-3 0 9997 2 38340 098.3499 074.0283 0010363 260.9365 099.0670 14.74938360197531 RS-40 1 38735U 12041C 16091.76717114 .00000040 00000-0 21992-3 0 9995 2 38735 82.4745 240.0255 0015926 271.8023 88.1226 12.42572113166752 BEESAT-3 1 39134U 13015E 16090.79757911 .00004188 00000-0 23031-3 0 9995 2 39134 64.8713 215.0928 0009797 248.1898 111.8185 15.15433032162236 BEESAT-2 1 39136U 13015G 16090.75326014 .00003407 00000-0 20126-3 0 9994 2 39136 64.8722 220.3763 0009496 242.4162 117.5998 15.13207074162138 ZACUBE-1 1 39417U 13066B 16090.80311538 .00000477 00000-0 67728-4 0 9997 2 39417 97.6892 146.9903 0058262 278.8812 80.5807 14.80302901127172 TRITON-1 1 39427U 13066M 16090.93151639 .00000394 00000-0 72003-4 0 9996 2 39427 097.6763 129.1936 0113999 328.3064 031.1311 14.67117983125852 GOMX-1 1 39430U 13066Q 16091.80343864 .00000522 00000-0 10465-3 0 9996 2 39430 97.6760 118.6089 0152778 0.3961 359.7320 14.58524967125444 LO-74 1 39440U 13066AA 16091.14344608 .00000443 00000-0 69890-4 0 9990 2 39440 97.6832 140.1890 0079852 296.8396 62.4665 14.75073971126770 SPROUT 1 39770U 14029E 16091.55430419 .00001730 00000-0 20834-3 0 9991 2 39770 97.8678 189.6899 0008633 346.4416 13.6586 14.85145557100411 EO-80 1 40032U 14033Y 16091.70967998 .00000777 00000-0 91902-4 0 9998 2 40032 97.9328 356.6986 0011137 318.4094 41.6273 14.87467238 96653 VELOX-1 1 40057U 14034E 16091.74832669 .00000713 00000-0 10977-3 0 9998 2 40057 98.1946 179.3957 0011943 43.2997 316.9154 14.76592390 94455 DAURIA DX 1 1 40071U 14037C 16091.83719489 .00000334 00000-0 50815-4 0 9996 2 40071 98.3305 179.7672 0009406 40.8723 319.3178 14.80763083 93503 UKUBE-1 1 40074U 14037F 16091.75491384 .00000761 00000-0 10088-3 0 9992 2 40074 98.3340 181.4955 0005594 50.4657 309.7059 14.82958159 93598 HODOYOSHI-1 1 40299U 14070B 16091.91271007 .00001885 00000-0 87862-4 0 9997 2 40299 97.4319 174.8093 0013333 195.0381 288.0839 15.21042021 77685 CHUBUSAT-1 1 40300U 14070C 16091.84768571 .00002060 00000-0 99760-4 0 9995 2 40300 97.4275 173.1910 0020694 204.0121 266.8512 15.19517593 77589 QSAT-EOS 1 40301U 14070D 16091.79424299 .00004251 00000-0 19568-3 0 9997 2 40301 97.4225 172.3965 0029071 205.9019 273.1951 15.20479455 77540 FIREBIRD FU3 1 40377U 15003B 16091.78084645 .00004374 00000-0 20224-3 0 9990 2 40377 99.0819 183.9945 0146361 25.7122 335.1286 15.11807420 64083 FIREBIRD FU4 1 40378U 15003C 16091.77768660 .00004336 00000-0 20027-3 0 9995 2 40378 99.0821 184.0022 0146610 25.6635 335.1772 15.11816699 64088 GRIFEX 1 40379U 15003D 16091.82668054 .00002970 00000-0 14386-3 0 9991 2 40379 99.0829 183.4429 0150188 28.4163 332.5149 15.10223558 64054 NO-84 1 40654U 15025D 16091.32644392 .00011093 00000-0 25041-3 0 00789 2 40654 055.0044 041.7806 0211609 239.3636 118.6352 15.23658288012160 NO-83 1 40655U 15025E 16091.33435845 .00014733 00000-0 30987-3 0 00837 2 40655 054.9886 037.7903 0195920 240.3531 117.7841 15.27718723012190 DEORBITSAIL 1 40719U 15032E 16091.50487788 .00000994 00000-0 15363-3 0 9999 2 40719 98.0262 343.7866 0017778 123.1756 237.1161 14.75393391 39033 NUDT-PHONESAT 1 40900U 15049B 16091.78481103 .00005135 00000-0 26921-3 0 9998 2 40900 97.4469 100.9152 0014434 332.7261 130.1578 15.16124764 29342 XW-2D 1 40907U 15049J 16091.84118321 .00002271 00000-0 13085-3 0 9996 2 40907 97.4514 100.5021 0013720 308.2535 173.7982 15.13337024 29300 XW-2F 1 40910U 15049M 16091.82949280 .00003319 00000-0 18770-3 0 9994 2 40910 97.4542 100.5992 0014963 307.5761 175.9983 15.13673632 29195 XW-2B 1 40911U 15049N 16091.77100193 .00002220 00000-0 12803-3 0 9992 2 40911 97.4565 100.5596 0013694 309.0010 157.5779 15.13327632 29190 DCBB 1 40912U 15049P 16091.86201483 .00003182 00000-0 17081-3 0 9998 2 40912 97.4546 101.1761 0015125 303.5734 177.7764 15.15566826 29240 TW-1C 1 40926U 15051B 16091.85860571 .00010824 00000-0 32085-3 0 9996 2 40926 97.2839 129.6636 0013755 332.8946 130.3340 15.34925373 28893 TW-1A 1 40928U 15051D 16091.72578560 .00004849 00000-0 15659-3 0 9996 2 40928 97.2782 129.0862 0013984 351.4810 102.6844 15.32496159 28858 IO-86 1 40931U 15052B 16091.73408634 .00000804 00000-0 23117-4 0 9992 2 40931 5.9975 147.3156 0012971 101.0011 259.1684 14.76443705 27460 GomX-3 1 40949U 98067HA 16091.78609789 .00033083 00000-0 26493-3 0 9991 2 40949 51.6370 72.6012 0004536 330.8277 29.2467 15.70724666 27874 LQSat 1 40958U 15057A 16091.79612474 .00000162 00000-0 33058-4 0 9993 2 40958 98.0187 167.6916 0019334 45.1806 315.0963 14.72839325 25997 AO-85 1 40967U 15058D 16088.36965193 .00000905 00000-0 11176-3 0 00837 2 40967 064.7780 130.8902 0211891 230.5050 127.7131 14.74902888011353 ATHENOXAT-1 1 41168U 15077C 16091.85063657 .00004284 00000-0 21906-3 0 9996 2 41168 14.9771 156.1819 0013061 12.6183 316.7651 15.09502365 16040 ChubuSat-2 1 41338U 16012B 16091.89437860 .00000931 00000-0 67579-4 0 9992 2 41338 31.0046 40.4224 0013980 2.0551 358.0145 14.99283639 6540 ChubuSat-3 1 41339U 16012C 16091.88743711 .00000887 00000-0 63623-4 0 9993 2 41339 31.0102 40.3715 0013775 7.4652 352.6202 14.99519653 6510 Horyu-4 1 41340U 16012D 16091.87851902 .00001481 00000-0 10985-3 0 9999 2 41340 31.0050 40.2930 0014338 10.0317 350.0604 14.99856929 6536 /EX
participants (1)
-
Ray Hoad